EWG817 LICC-EDDK

Flight info

Callsign EWG817
Flight time 2h 17m
Altitude 34000
Route PEKOD T111 BUDIN DCT NAXES DCT SIPRO DCT EVULI DCT GOTMO DCT UNUMU DCT DITUM DCT GOREP DCT VIC DCT SUMIR DCT UNIMI DCT KPT L608 KOVAN T844 ASKIK T840 GULKO GULKO1B
Aircraft A321/M-SDE2E3FGIJ1LORWXY/HB1

Departure

Time 2026-05-07 13:54
Airport Catania-Fontanarossa Airport (LICC)

Arrival

Time 2026-05-07 16:12
Airport Cologne Bonn Airport (EDDK)
Time Latitude Longitude Altitude Speed Heading
2026-05-07 13:26 37.46926 15.06763 32 ft 0 kts 354°
2026-05-07 13:47 37.46916 15.06764 32 ft 4 kts 355°
2026-05-07 13:47 37.46894 15.06766 32 ft 3 kts 352°
2026-05-07 13:48 37.46869 15.06774 31 ft 4 kts 323°
2026-05-07 13:48 37.46857 15.06798 29 ft 3 kts 270°
2026-05-07 13:48 37.46856 15.06784 29 ft 4 kts 265°
2026-05-07 13:48 37.46855 15.06774 30 ft 0 kts 264°
2026-05-07 13:50 37.46855 15.06771 32 ft 2 kts 264°
2026-05-07 13:50 37.46852 15.06736 32 ft 7 kts 264°
2026-05-07 13:50 37.46846 15.06658 32 ft 11 kts 264°
2026-05-07 13:51 37.46836 15.06541 32 ft 15 kts 264°
2026-05-07 13:51 37.46824 15.06405 32 ft 16 kts 264°
2026-05-07 13:51 37.46813 15.06264 32 ft 17 kts 264°
2026-05-07 13:51 37.46800 15.06118 32 ft 17 kts 264°
2026-05-07 13:52 37.46787 15.05962 32 ft 18 kts 264°
2026-05-07 13:52 37.46774 15.05799 32 ft 19 kts 264°
2026-05-07 13:52 37.46760 15.05632 32 ft 19 kts 264°
2026-05-07 13:52 37.46745 15.05460 32 ft 20 kts 264°
2026-05-07 13:53 37.46724 15.05321 32 ft 14 kts 235°
2026-05-07 13:53 37.46648 15.05234 33 ft 15 kts 221°
2026-05-07 13:53 37.46573 15.05215 33 ft 11 kts 136°
2026-05-07 13:53 37.46567 15.05313 35 ft 16 kts 83°
2026-05-07 13:54 37.46603 15.05739 34 ft 83 kts 84°
2026-05-07 13:54 37.46688 15.06721 47 ft 139 kts 76°
2026-05-07 13:54 37.46787 15.07930 751 ft 136 kts 78°
2026-05-07 13:54 37.46926 15.09111 1482 ft 139 kts 80°
2026-05-07 13:55 37.47100 15.10390 1878 ft 159 kts 82°
2026-05-07 13:55 37.47300 15.11860 2241 ft 182 kts 82°
2026-05-07 13:55 37.47527 15.13532 2582 ft 205 kts 82°
2026-05-07 13:55 37.47780 15.15399 2891 ft 227 kts 82°
2026-05-07 13:56 37.48054 15.17401 3506 ft 235 kts 82°
2026-05-07 13:56 37.48337 15.19439 4250 ft 237 kts 81°
2026-05-07 13:56 37.48618 15.21478 4985 ft 239 kts 82°
2026-05-07 13:56 37.48907 15.23573 5533 ft 250 kts 82°
2026-05-07 13:57 37.49208 15.25782 6004 ft 262 kts 83°
2026-05-07 13:57 37.49520 15.28092 6493 ft 273 kts 85°
2026-05-07 13:57 37.49985 15.30458 6944 ft 288 kts 68°
2026-05-07 13:57 37.51141 15.32563 7433 ft 299 kts 49°
2026-05-07 13:58 37.52572 15.34510 7936 ft 306 kts 49°
2026-05-07 13:58 37.54046 15.36471 8523 ft 310 kts 43°
2026-05-07 13:58 37.55787 15.38099 9096 ft 314 kts 28°
2026-05-07 13:58 37.57786 15.39227 9635 ft 317 kts 19°
2026-05-07 13:59 37.59850 15.40253 10166 ft 323 kts 19°
2026-05-07 13:59 37.62003 15.41328 10286 ft 342 kts 19°
2026-05-07 13:59 37.64283 15.42469 10424 ft 361 kts 20°
2026-05-07 13:59 37.66659 15.43663 10646 ft 374 kts 20°
2026-05-07 14:00 37.69143 15.44679 11093 ft 377 kts
2026-05-07 14:00 37.71741 15.45047 11630 ft 375 kts 357°
2026-05-07 14:00 37.74330 15.44743 12202 ft 373 kts 345°
2026-05-07 14:00 37.76796 15.43793 12774 ft 370 kts 334°
2026-05-07 14:01 37.79191 15.42582 13329 ft 372 kts 334°
2026-05-07 14:01 37.81598 15.41369 13882 ft 373 kts 334°
2026-05-07 14:01 37.84019 15.40158 14386 ft 375 kts 334°
2026-05-07 14:01 37.86450 15.38940 14881 ft 377 kts 334°
2026-05-07 14:02 37.88862 15.37733 15388 ft 379 kts 334°
2026-05-07 14:02 37.91352 15.36483 15886 ft 381 kts 334°
2026-05-07 14:02 37.93825 15.35241 16359 ft 383 kts 334°
2026-05-07 14:02 37.96313 15.33991 16832 ft 386 kts 334°
2026-05-07 14:03 37.98812 15.32738 17309 ft 388 kts 334°
2026-05-07 14:03 38.01333 15.31478 17801 ft 391 kts 334°
2026-05-07 14:03 38.03869 15.30207 18264 ft 393 kts 334°
2026-05-07 14:03 38.06420 15.28925 18656 ft 396 kts 334°
2026-05-07 14:04 38.08986 15.27632 19075 ft 398 kts 333°
2026-05-07 14:04 38.11563 15.26327 19474 ft 399 kts 333°
2026-05-07 14:04 38.14116 15.25029 19843 ft 402 kts 333°
2026-05-07 14:04 38.16722 15.23707 20220 ft 404 kts 333°
2026-05-07 14:05 38.19344 15.22383 20605 ft 407 kts 333°
2026-05-07 14:05 38.21980 15.21053 20958 ft 408 kts 332°
2026-05-07 14:05 38.24628 15.19715 21325 ft 410 kts 332°
2026-05-07 14:05 38.27281 15.18370 21689 ft 412 kts 332°
2026-05-07 14:06 38.29951 15.17016 22054 ft 414 kts 332°
2026-05-07 14:06 38.32634 15.15656 22426 ft 416 kts 332°
2026-05-07 14:06 38.35328 15.14289 22796 ft 418 kts 332°
2026-05-07 14:06 38.38032 15.12910 23159 ft 419 kts 332°
2026-05-07 14:07 38.40747 15.11526 23515 ft 421 kts 331°
2026-05-07 14:07 38.43475 15.10134 23813 ft 423 kts 331°
2026-05-07 14:07 38.46212 15.08739 24123 ft 424 kts 331°
2026-05-07 14:07 38.48966 15.07359 24434 ft 426 kts 332°
2026-05-07 14:08 38.51766 15.06069 24746 ft 429 kts 333°
2026-05-07 14:08 38.54603 15.04848 25054 ft 431 kts 334°
2026-05-07 14:08 38.57460 15.03657 25354 ft 433 kts 334°
2026-05-07 14:08 38.60328 15.02470 25654 ft 434 kts 334°
2026-05-07 14:09 38.63192 15.01274 25990 ft 434 kts 333°
2026-05-07 14:09 38.66060 15.00060 26306 ft 434 kts 333°
2026-05-07 14:09 38.68928 14.98829 26605 ft 435 kts 332°
2026-05-07 14:09 38.71799 14.97583 26901 ft 436 kts 332°
2026-05-07 14:10 38.74676 14.96329 27189 ft 437 kts 332°
2026-05-07 14:10 38.77560 14.95070 27468 ft 439 kts 332°
2026-05-07 14:10 38.80452 14.93806 27756 ft 440 kts 332°
2026-05-07 14:10 38.83352 14.92537 28047 ft 441 kts 331°
2026-05-07 14:11 38.86224 14.91279 28309 ft 443 kts 332°
2026-05-07 14:11 38.89151 14.90000 28557 ft 445 kts 332°
2026-05-07 14:11 38.92089 14.88717 28780 ft 447 kts 331°
2026-05-07 14:11 38.95037 14.87428 29032 ft 448 kts 331°
2026-05-07 14:12 38.97993 14.86138 29266 ft 449 kts 331°
2026-05-07 14:12 39.00958 14.84846 29498 ft 450 kts 331°
2026-05-07 14:12 39.03925 14.83556 29713 ft 452 kts 331°
2026-05-07 14:12 39.06905 14.82258 29913 ft 453 kts 331°
2026-05-07 14:13 39.09887 14.80952 30167 ft 452 kts 332°
2026-05-07 14:13 39.12858 14.79647 30442 ft 450 kts 332°
2026-05-07 14:13 39.15816 14.78345 30699 ft 449 kts 331°
2026-05-07 14:13 39.18766 14.77047 30953 ft 447 kts 331°
2026-05-07 14:14 39.21708 14.75751 31197 ft 446 kts 331°
2026-05-07 14:14 39.24641 14.74457 31438 ft 445 kts 330°
2026-05-07 14:14 39.27567 14.73164 31684 ft 444 kts 330°
2026-05-07 14:14 39.30486 14.71873 31921 ft 443 kts 330°
2026-05-07 14:15 39.33396 14.70583 32206 ft 441 kts 330°
2026-05-07 14:15 39.36290 14.69303 32505 ft 438 kts 329°
2026-05-07 14:15 39.39171 14.68029 32768 ft 437 kts 329°
2026-05-07 14:15 39.42040 14.66757 33009 ft 435 kts 329°
2026-05-07 14:16 39.44896 14.65490 33236 ft 434 kts 329°
2026-05-07 14:16 39.47753 14.64224 33470 ft 433 kts 329°
2026-05-07 14:16 39.50602 14.62959 33697 ft 432 kts 328°
2026-05-07 14:16 39.53446 14.61695 33891 ft 432 kts 328°
2026-05-07 14:17 39.56277 14.60437 33961 ft 427 kts 328°
2026-05-07 14:17 39.61842 14.57973 33942 ft 420 kts 327°
2026-05-07 14:18 39.67358 14.55504 33943 ft 419 kts 327°
2026-05-07 14:18 39.72866 14.53028 33945 ft 419 kts 327°
2026-05-07 14:19 39.78374 14.50555 33947 ft 419 kts 327°
2026-05-07 14:19 39.82953 14.48503 33952 ft 419 kts 327°
2026-05-07 14:20 39.88472 14.46028 33948 ft 419 kts 327°
2026-05-07 14:20 39.93945 14.43457 33953 ft 417 kts 326°
2026-05-07 14:21 39.99366 14.40768 33960 ft 417 kts 325°
2026-05-07 14:21 40.04792 14.38077 33984 ft 417 kts 325°
2026-05-07 14:22 40.11107 14.34974 33975 ft 417 kts 325°
2026-05-07 14:22 40.15653 14.32735 33974 ft 417 kts 325°
2026-05-07 14:23 40.21050 14.30082 33975 ft 417 kts 325°
2026-05-07 14:23 40.26514 14.27394 33969 ft 415 kts 325°
2026-05-07 14:24 40.31916 14.24736 33967 ft 414 kts 325°
2026-05-07 14:24 40.37315 14.22067 33965 ft 415 kts 325°
2026-05-07 14:25 40.42681 14.19407 33985 ft 415 kts 324°
2026-05-07 14:25 40.48120 14.16706 34006 ft 416 kts 325°
2026-05-07 14:26 40.53512 14.14022 33968 ft 414 kts 325°
2026-05-07 14:26 40.58871 14.11356 33979 ft 415 kts 325°
2026-05-07 14:27 40.64267 14.08670 33975 ft 414 kts 325°
2026-05-07 14:27 40.69659 14.05975 33985 ft 415 kts 325°
2026-05-07 14:28 40.75035 14.03292 33986 ft 412 kts 326°
2026-05-07 14:28 40.80393 14.00600 33980 ft 412 kts 326°
2026-05-07 14:29 40.85755 13.97902 33975 ft 413 kts 326°
2026-05-07 14:29 40.91123 13.95206 33974 ft 413 kts 326°
2026-05-07 14:30 40.96487 13.92511 33995 ft 413 kts 327°
2026-05-07 14:30 41.01858 13.89800 33988 ft 413 kts 327°
2026-05-07 14:31 41.07226 13.87078 33985 ft 413 kts 327°
2026-05-07 14:31 41.12601 13.84354 33995 ft 415 kts 328°
2026-05-07 14:32 41.18005 13.81612 33979 ft 417 kts 328°
2026-05-07 14:32 41.23410 13.78871 33953 ft 420 kts 328°
2026-05-07 14:33 41.28873 13.76095 33952 ft 421 kts 329°
2026-05-07 14:33 41.34359 13.73300 33954 ft 423 kts 329°
2026-05-07 14:34 41.39854 13.70489 33984 ft 424 kts 328°
2026-05-07 14:34 41.45358 13.67667 33975 ft 425 kts 329°
2026-05-07 14:35 41.50960 13.65019 33982 ft 428 kts 331°
2026-05-07 14:35 41.56622 13.62500 33981 ft 429 kts 331°
2026-05-07 14:36 41.62276 13.59956 34002 ft 429 kts 330°
2026-05-07 14:36 41.67920 13.57361 34006 ft 429 kts 330°
2026-05-07 14:37 41.73559 13.54739 34003 ft 429 kts 330°
2026-05-07 14:37 41.82011 13.50812 34010 ft 428 kts 330°
2026-05-07 14:38 41.87624 13.48210 34033 ft 431 kts 331°
2026-05-07 14:38 41.93298 13.45575 34017 ft 432 kts 331°
2026-05-07 14:39 41.98968 13.42936 33998 ft 431 kts 331°
2026-05-07 14:39 42.04636 13.40299 33994 ft 431 kts 330°
2026-05-07 14:40 42.10319 13.37642 34004 ft 433 kts 330°
2026-05-07 14:40 42.16009 13.34971 34010 ft 433 kts 331°
2026-05-07 14:41 42.21739 13.32423 34006 ft 435 kts 333°
2026-05-07 14:41 42.27549 13.30056 34022 ft 437 kts 334°
2026-05-07 14:42 42.33370 13.27693 34004 ft 436 kts 334°
2026-05-07 14:42 42.39169 13.25282 33999 ft 436 kts 333°
2026-05-07 14:43 42.44970 13.22844 34004 ft 436 kts 333°
2026-05-07 14:43 42.50779 13.20392 33993 ft 438 kts 334°
2026-05-07 14:44 42.56616 13.17928 33991 ft 440 kts 334°
2026-05-07 14:44 42.62469 13.15466 33988 ft 441 kts 334°
2026-05-07 14:45 42.68334 13.12996 34035 ft 442 kts 334°
2026-05-07 14:45 42.74201 13.10507 34015 ft 441 kts 334°
2026-05-07 14:46 42.80027 13.08032 34009 ft 442 kts 334°
2026-05-07 14:46 42.85910 13.05531 34003 ft 443 kts 334°
2026-05-07 14:47 42.91798 13.03026 34023 ft 444 kts 334°
2026-05-07 14:47 42.97732 13.00496 34013 ft 444 kts 334°
2026-05-07 14:48 43.03582 12.97991 34004 ft 444 kts 334°
2026-05-07 14:48 43.09484 12.95464 34024 ft 445 kts 334°
2026-05-07 14:49 43.15387 12.92932 34021 ft 444 kts 334°
2026-05-07 14:49 43.21161 12.90095 34015 ft 435 kts 325°
2026-05-07 14:50 43.26267 12.85854 34007 ft 428 kts 320°
2026-05-07 14:50 43.31301 12.81496 34028 ft 428 kts 320°
2026-05-07 14:51 43.36342 12.77131 34031 ft 429 kts 320°
2026-05-07 14:51 43.41404 12.72800 34016 ft 431 kts 324°
2026-05-07 14:52 43.47050 12.69708 33998 ft 440 kts 333°
2026-05-07 14:52 43.52846 12.66974 33992 ft 440 kts 333°
2026-05-07 14:53 43.58651 12.64225 33991 ft 441 kts 333°
2026-05-07 14:53 43.64415 12.61482 33999 ft 442 kts 333°
2026-05-07 14:54 43.70230 12.58706 34004 ft 442 kts 333°
2026-05-07 14:54 43.76042 12.55930 34034 ft 442 kts 333°
2026-05-07 14:55 43.81854 12.53140 34028 ft 442 kts 333°
2026-05-07 14:55 43.87666 12.50354 34025 ft 442 kts 333°
2026-05-07 14:56 43.93472 12.47578 34045 ft 442 kts 333°
2026-05-07 14:56 43.99278 12.44781 34033 ft 441 kts 333°
2026-05-07 14:57 44.05080 12.41975 34028 ft 442 kts 333°
2026-05-07 14:57 44.10886 12.39169 34030 ft 442 kts 333°
2026-05-07 14:58 44.16691 12.36363 34026 ft 441 kts 333°
2026-05-07 14:58 44.22447 12.33570 34024 ft 441 kts 333°
2026-05-07 14:59 44.28246 12.30744 34024 ft 441 kts 333°
2026-05-07 14:59 44.34046 12.27920 34048 ft 441 kts 333°
2026-05-07 15:00 44.39817 12.25113 33993 ft 439 kts 334°
2026-05-07 15:00 44.45856 12.23206 33990 ft 447 kts 340°
2026-05-07 15:01 44.51943 12.21474 33995 ft 447 kts 340°
2026-05-07 15:01 44.58039 12.19732 34003 ft 447 kts 340°
2026-05-07 15:02 44.64137 12.17977 34003 ft 447 kts 340°
2026-05-07 15:02 44.70231 12.16226 34013 ft 447 kts 340°
2026-05-07 15:03 44.76324 12.14466 33994 ft 446 kts 340°
2026-05-07 15:03 44.82382 12.12708 33986 ft 445 kts 340°
2026-05-07 15:04 44.88446 12.10945 33983 ft 445 kts 340°
2026-05-07 15:04 44.94311 12.08541 33996 ft 433 kts 329°
2026-05-07 15:05 44.99851 12.05316 33993 ft 434 kts 329°
2026-05-07 15:05 45.05427 12.02064 33988 ft 434 kts 329°
2026-05-07 15:06 45.11008 11.98803 33990 ft 434 kts 329°
2026-05-07 15:06 45.16582 11.95535 33982 ft 432 kts 329°
2026-05-07 15:07 45.22101 11.92297 33966 ft 428 kts 329°
2026-05-07 15:07 45.27602 11.89056 33967 ft 429 kts 329°
2026-05-07 15:08 45.33117 11.85797 33973 ft 430 kts 329°
2026-05-07 15:08 45.38645 11.82538 33996 ft 430 kts 329°
2026-05-07 15:09 45.44174 11.79274 33990 ft 431 kts 329°
2026-05-07 15:09 45.49713 11.75995 33988 ft 431 kts 329°
2026-05-07 15:10 45.55253 11.72701 34004 ft 431 kts 329°
2026-05-07 15:10 45.60777 11.69408 33982 ft 429 kts 330°
2026-05-07 15:11 45.65364 11.66697 33975 ft 431 kts 332°
2026-05-07 15:11 45.71026 11.63778 33975 ft 434 kts 334°
2026-05-07 15:12 45.77681 11.60578 33989 ft 434 kts 334°
2026-05-07 15:12 45.83388 11.57741 34000 ft 434 kts 334°
2026-05-07 15:13 45.88114 11.55336 34004 ft 434 kts 333°
2026-05-07 15:13 45.93803 11.52421 34010 ft 434 kts 333°
2026-05-07 15:14 45.99486 11.49510 34031 ft 434 kts 334°
2026-05-07 15:14 46.05187 11.46598 34024 ft 435 kts 334°
2026-05-07 15:15 46.10897 11.43680 34018 ft 436 kts 334°
2026-05-07 15:15 46.16600 11.40750 34008 ft 435 kts 334°
2026-05-07 15:16 46.22310 11.37817 34010 ft 436 kts 334°
2026-05-07 15:16 46.28030 11.34890 34003 ft 436 kts 334°
2026-05-07 15:17 46.33788 11.32085 34007 ft 437 kts 335°
2026-05-07 15:17 46.39566 11.29324 34024 ft 437 kts 335°
2026-05-07 15:18 46.45328 11.26544 33969 ft 437 kts 336°
2026-05-07 15:18 46.51081 11.23743 34009 ft 436 kts 335°
2026-05-07 15:19 46.56794 11.20938 34012 ft 436 kts 335°
2026-05-07 15:19 46.62539 11.18117 34017 ft 436 kts 335°
2026-05-07 15:20 46.68296 11.15294 34025 ft 437 kts 336°
2026-05-07 15:20 46.74061 11.12455 34015 ft 437 kts 336°
2026-05-07 15:21 46.79818 11.09609 34013 ft 437 kts 336°
2026-05-07 15:21 46.85575 11.06714 34030 ft 436 kts 333°
2026-05-07 15:22 46.90927 11.02682 34026 ft 433 kts 327°
2026-05-07 15:22 46.96213 10.98468 34013 ft 432 kts 327°
2026-05-07 15:23 47.01496 10.94254 34012 ft 433 kts 327°
2026-05-07 15:23 47.06788 10.90036 34010 ft 433 kts 327°
2026-05-07 15:24 47.12074 10.85805 34034 ft 434 kts 327°
2026-05-07 15:24 47.17336 10.81570 34023 ft 434 kts 327°
2026-05-07 15:25 47.22640 10.77299 34042 ft 434 kts 327°
2026-05-07 15:25 47.27935 10.73024 34031 ft 434 kts 327°
2026-05-07 15:26 47.33236 10.68746 34048 ft 435 kts 327°
2026-05-07 15:26 47.38547 10.64448 34049 ft 435 kts 327°
2026-05-07 15:27 47.43853 10.60142 34039 ft 436 kts 327°
2026-05-07 15:27 47.49164 10.55822 34055 ft 436 kts 327°
2026-05-07 15:28 47.54470 10.51496 34051 ft 435 kts 328°
2026-05-07 15:28 47.59769 10.47156 34053 ft 435 kts 328°
2026-05-07 15:29 47.65058 10.42810 34052 ft 435 kts 328°
2026-05-07 15:29 47.70351 10.38462 34049 ft 435 kts 328°
2026-05-07 15:30 47.75513 10.33847 34044 ft 430 kts 319°
2026-05-07 15:30 47.80153 10.28233 34051 ft 430 kts 318°
2026-05-07 15:31 47.84774 10.22578 34048 ft 430 kts 317°
2026-05-07 15:31 47.89394 10.16917 34046 ft 430 kts 318°
2026-05-07 15:32 47.93989 10.11290 34045 ft 430 kts 318°
2026-05-07 15:32 47.98611 10.05629 34043 ft 430 kts 318°
2026-05-07 15:33 48.03221 9.99959 34052 ft 429 kts 318°
2026-05-07 15:33 48.07827 9.94268 34045 ft 430 kts 318°
2026-05-07 15:34 48.12431 9.88571 34040 ft 430 kts 318°
2026-05-07 15:34 48.17043 9.82865 34037 ft 430 kts 318°
2026-05-07 15:35 48.21644 9.77145 34040 ft 430 kts 318°
2026-05-07 15:35 48.26248 9.71419 34053 ft 430 kts 318°
2026-05-07 15:36 48.30850 9.65672 34045 ft 430 kts 318°
2026-05-07 15:36 48.35449 9.59902 34040 ft 431 kts 318°
2026-05-07 15:37 48.40018 9.54075 34041 ft 431 kts 317°
2026-05-07 15:37 48.44569 9.48200 34042 ft 431 kts 317°
2026-05-07 15:38 48.49121 9.42332 34043 ft 431 kts 317°
2026-05-07 15:38 48.53651 9.36503 34047 ft 431 kts 317°
2026-05-07 15:39 48.58229 9.30589 34047 ft 430 kts 317°
2026-05-07 15:39 48.63013 9.25245 34045 ft 433 kts 330°
2026-05-07 15:40 48.68561 9.21477 34040 ft 435 kts 334°
2026-05-07 15:40 48.74075 9.17838 34046 ft 435 kts 334°
2026-05-07 15:41 48.79616 9.14173 34047 ft 434 kts 334°
2026-05-07 15:41 48.85150 9.10494 34053 ft 434 kts 334°
2026-05-07 15:42 48.90779 9.07152 34050 ft 435 kts 339°
2026-05-07 15:42 48.96524 9.04274 34060 ft 435 kts 340°
2026-05-07 15:43 49.02264 9.01382 34056 ft 435 kts 340°
2026-05-07 15:43 49.08008 8.98479 34054 ft 435 kts 340°
2026-05-07 15:44 49.13754 8.95584 34052 ft 435 kts 340°
2026-05-07 15:44 49.19492 8.92680 34057 ft 435 kts 340°
2026-05-07 15:45 49.25236 8.89760 34061 ft 435 kts 340°
2026-05-07 15:45 49.30980 8.86832 34062 ft 435 kts 340°
2026-05-07 15:46 49.39585 8.82429 34063 ft 435 kts 340°
2026-05-07 15:47 49.45380 8.79722 34065 ft 436 kts 342°
2026-05-07 15:47 49.48263 8.78491 33803 ft 435 kts 343°
2026-05-07 15:47 49.51218 8.77255 33524 ft 434 kts 343°
2026-05-07 15:47 49.54119 8.76037 33134 ft 429 kts 343°
2026-05-07 15:48 49.56949 8.74838 32647 ft 425 kts 343°
2026-05-07 15:48 49.59784 8.73618 32168 ft 421 kts 342°
2026-05-07 15:48 49.62580 8.72393 31687 ft 416 kts 342°
2026-05-07 15:48 49.65347 8.71165 31224 ft 411 kts 342°
2026-05-07 15:49 49.68086 8.69941 30740 ft 407 kts 342°
2026-05-07 15:49 49.70790 8.68736 30271 ft 403 kts 342°
2026-05-07 15:49 49.73478 8.67539 29765 ft 399 kts 342°
2026-05-07 15:49 49.76129 8.66362 29305 ft 393 kts 342°
2026-05-07 15:50 49.78738 8.65207 28857 ft 388 kts 342°
2026-05-07 15:50 49.81318 8.64066 28414 ft 383 kts 342°
2026-05-07 15:50 49.83871 8.62934 27980 ft 379 kts 342°
2026-05-07 15:50 49.86393 8.61812 27552 ft 375 kts 342°
2026-05-07 15:51 49.88884 8.60699 27142 ft 370 kts 342°
2026-05-07 15:51 49.91343 8.59597 26742 ft 365 kts 342°
2026-05-07 15:51 49.93768 8.58515 26355 ft 361 kts 342°
2026-05-07 15:51 49.96168 8.57448 25972 ft 357 kts 342°
2026-05-07 15:52 49.98543 8.56388 25599 ft 355 kts 342°
2026-05-07 15:52 50.00912 8.55328 25222 ft 353 kts 342°
2026-05-07 15:52 50.03265 8.54271 24851 ft 351 kts 342°
2026-05-07 15:52 50.05606 8.53215 24474 ft 350 kts 342°
2026-05-07 15:53 50.07919 8.52076 24106 ft 347 kts 340°
2026-05-07 15:53 50.10198 8.50862 23729 ft 345 kts 339°
2026-05-07 15:53 50.12460 8.49612 23318 ft 343 kts 339°
2026-05-07 15:53 50.14703 8.48361 22926 ft 342 kts 339°
2026-05-07 15:54 50.16938 8.47123 22544 ft 340 kts 339°
2026-05-07 15:54 50.19158 8.45899 22158 ft 338 kts 339°
2026-05-07 15:54 50.21373 8.44691 21760 ft 336 kts 339°
2026-05-07 15:54 50.23573 8.43500 21365 ft 334 kts 339°
2026-05-07 15:55 50.25763 8.42314 20967 ft 332 kts 339°
2026-05-07 15:55 50.27940 8.41133 20569 ft 330 kts 338°
2026-05-07 15:55 50.30003 8.39612 20173 ft 327 kts 328°
2026-05-07 15:55 50.31909 8.37708 19774 ft 325 kts 326°
2026-05-07 15:56 50.33807 8.35805 19377 ft 323 kts 326°
2026-05-07 15:56 50.35699 8.33923 18986 ft 321 kts 327°
2026-05-07 15:56 50.37582 8.32055 18587 ft 320 kts 326°
2026-05-07 15:56 50.39462 8.30184 18169 ft 319 kts 326°
2026-05-07 15:57 50.41330 8.28315 17753 ft 318 kts 326°
2026-05-07 15:57 50.43163 8.26480 17369 ft 316 kts 326°
2026-05-07 15:57 50.45030 8.24611 16970 ft 314 kts 326°
2026-05-07 15:57 50.46863 8.22775 16577 ft 312 kts 326°
2026-05-07 15:58 50.48662 8.20978 16186 ft 309 kts 326°
2026-05-07 15:58 50.50471 8.19166 15806 ft 307 kts 326°
2026-05-07 15:58 50.52268 8.17360 15416 ft 306 kts 326°
2026-05-07 15:58 50.54054 8.15561 15039 ft 304 kts 326°
2026-05-07 15:59 50.55828 8.13776 14650 ft 302 kts 326°
2026-05-07 15:59 50.57594 8.11997 14278 ft 300 kts 326°
2026-05-07 15:59 50.59349 8.10230 13913 ft 298 kts 326°
2026-05-07 15:59 50.61096 8.08468 13450 ft 298 kts 326°
2026-05-07 16:00 50.62826 8.06717 13021 ft 294 kts 326°
2026-05-07 16:00 50.64537 8.04973 12635 ft 291 kts 326°
2026-05-07 16:00 50.66233 8.03242 12274 ft 290 kts 326°
2026-05-07 16:00 50.67917 8.01528 11898 ft 287 kts 326°
2026-05-07 16:01 50.69592 7.99820 11532 ft 286 kts 326°
2026-05-07 16:01 50.71259 7.98120 11163 ft 284 kts 327°
2026-05-07 16:01 50.72822 7.96241 10801 ft 281 kts 314°
2026-05-07 16:01 50.73998 7.93800 10443 ft 280 kts 298°
2026-05-07 16:02 50.74694 7.90947 10186 ft 278 kts 282°
2026-05-07 16:02 50.74867 7.87880 10119 ft 283 kts 268°
2026-05-07 16:02 50.74627 7.84787 9997 ft 285 kts 263°
2026-05-07 16:02 50.74443 7.82726 9639 ft 290 kts 263°
2026-05-07 16:03 50.74067 7.78555 9166 ft 284 kts 263°
2026-05-07 16:03 50.73881 7.76522 8817 ft 281 kts 263°
2026-05-07 16:03 50.73603 7.73477 8210 ft 279 kts 263°
2026-05-07 16:03 50.73331 7.70477 7665 ft 274 kts 263°
2026-05-07 16:04 50.73063 7.67513 7121 ft 271 kts 262°
2026-05-07 16:04 50.72798 7.64591 6656 ft 268 kts 262°
2026-05-07 16:04 50.72534 7.61673 6177 ft 270 kts 262°
2026-05-07 16:04 50.72268 7.58735 5763 ft 269 kts 262°
2026-05-07 16:05 50.72004 7.55850 5264 ft 263 kts 263°
2026-05-07 16:05 50.71742 7.52987 4800 ft 264 kts 263°
2026-05-07 16:05 50.71483 7.50175 4657 ft 253 kts 263°
2026-05-07 16:05 50.71236 7.47506 4587 ft 239 kts 263°
2026-05-07 16:06 50.71000 7.44963 4501 ft 231 kts 263°
2026-05-07 16:06 50.70769 7.42471 4417 ft 225 kts 263°
2026-05-07 16:06 50.70690 7.40086 4335 ft 214 kts 278°
2026-05-07 16:06 50.71109 7.37867 4164 ft 210 kts 298°
2026-05-07 16:07 50.71982 7.36057 3947 ft 208 kts 318°
2026-05-07 16:07 50.73053 7.34524 3650 ft 207 kts 319°
2026-05-07 16:07 50.74114 7.33006 3378 ft 206 kts 319°
2026-05-07 16:07 50.75173 7.31485 3098 ft 205 kts 319°
2026-05-07 16:08 50.76221 7.29979 2829 ft 201 kts 319°
2026-05-07 16:08 50.77230 7.28528 2562 ft 191 kts 319°
2026-05-07 16:08 50.78190 7.27144 2299 ft 182 kts 319°
2026-05-07 16:08 50.79099 7.25835 2076 ft 169 kts 319°
2026-05-07 16:09 50.79933 7.24634 1840 ft 156 kts 319°
2026-05-07 16:09 50.80699 7.23528 1638 ft 146 kts 319°
2026-05-07 16:09 50.81438 7.22464 1435 ft 143 kts 319°
2026-05-07 16:09 50.82163 7.21419 1238 ft 143 kts 318°
2026-05-07 16:10 50.82910 7.20344 1049 ft 143 kts 318°
2026-05-07 16:10 50.83631 7.19298 876 ft 143 kts 319°
2026-05-07 16:10 50.84360 7.18249 698 ft 140 kts 320°
2026-05-07 16:10 50.85087 7.17192 480 ft 140 kts 319°
2026-05-07 16:11 50.85805 7.16151 317 ft 139 kts 320°
2026-05-07 16:11 50.86461 7.15208 282 ft 111 kts 317°
2026-05-07 16:11 50.86938 7.14517 259 ft 81 kts 317°
2026-05-07 16:11 50.87307 7.13980 242 ft 66 kts 317°
2026-05-07 16:12 50.87621 7.13525 239 ft 58 kts 317°
2026-05-07 16:12 50.87897 7.13128 239 ft 41 kts 317°
2026-05-07 16:12 50.88000 7.12933 239 ft 16 kts 287°
2026-05-07 16:12 50.87996 7.12753 240 ft 15 kts 254°
2026-05-07 16:13 50.87992 7.12605 234 ft 14 kts 288°
2026-05-07 16:13 50.88042 7.12458 234 ft 16 kts 300°
2026-05-07 16:13 50.88105 7.12308 232 ft 17 kts 306°
2026-05-07 16:13 50.88171 7.12165 234 ft 16 kts 306°
2026-05-07 16:14 50.88220 7.12059 232 ft 7 kts 306°
2026-05-07 16:14 50.88214 7.11996 232 ft 7 kts 224°
2026-05-07 16:14 50.88184 7.11961 232 ft 3 kts 216°
2026-05-07 16:14 50.88178 7.11954 232 ft 0 kts 216°